Regional Weather Roundup
Issued by NWS

Home | Current Version | Previous Version | Text Only | Print | Product List | Glossary On
Versions: 1 2 3 4 5 6 7 8 9 10 11 12 13 14 15 16 17 18 19 20 21 22 23 24 25 26 27 28 29 30 31 32 33 34 35 36 37 38 39 40 41 42 43 44 45 46 47 48 49 50
000
ASUS44 KFWD 010515
RWRTX
NORTH TEXAS HOURLY WEATHER ROUNDUP
NATIONAL WEATHER SERVICE FORT WORTH TX
1200 AM CDT SAT OCT 01 2016

NOTE: "FAIR" INDICATES FEW OR NO CLOUDS BELOW 12,000 FEET WITH NO
SIGNIFICANT WEATHER AND/OR OBSTRUCTIONS TO VISIBILITY.

TXZ118-119-010600-
DALLAS/FORT WORTH METROPLEX

CITY           SKY/WX    TMP DP  RH WIND       PRES   REMARKS
DFW AIRPORT    MOCLDY    71  48  43 CALM      30.09S
DALLAS LOVE    CLOUDY    67  55  65 NE6       30.09S
FTW MEACHAM    CLOUDY    67  53  61 CALM      30.10R
DAL-EXECUTIVE  MOCLDY    64  52  64 CALM      30.10R
FTW-ALLIANCE   MOCLDY    56  53  90 CALM      30.10R
FTW-NAS-JRB    MOCLDY    65  53  65 NW5       30.11R
FTW-SPINKS     MOCLDY    58  54  87 CALM      30.12S
ARLINGTON      PTCLDY    58  54  86 CALM      30.10R
GRAND PRAIRIE  PTCLDY    69  50  50 CALM      30.11S
ADDISON        CLOUDY    71  51  50 CALM      30.11S
MESQUITE       CLOUDY    66  50  56 CALM      30.10R
LANCASTER      CLOUDY    62  54  73 CALM      30.10S
$$

TXZ091>094-102>105-117-120-121-131>134-010600-
NORTH CENTRAL TEXAS

CITY           SKY/WX    TMP DP  RH WIND       PRES   REMARKS
SHRMAN/DENISON PTCLDY    62  54  74 CALM      30.11S
GAINESVILLE      N/A     59  52  77 CALM      30.13S
BOWIE          PTCLDY    58  55  88 CALM      30.12S
BRIDGEPORT     MOCLDY    58  55  89 CALM      30.13S
DECATUR        CLOUDY    65  46  50 SE3       30.12S
DENTON         PTCLDY    56  53  90 NW5       30.10R
MCKINNEY       CLOUDY    62  57  83 CALM      30.10R
GREENVILLE     MOCLDY    59  54  82 CALM      30.10S
ROCKWALL       CLOUDY    64  54  72 NW5       30.09S
TERRELL        CLOUDY    62  55  77 CALM      30.10R
WAXAHACHIE     PTCLDY    61  53  74 CALM      30.12R
CLEBURNE       CLOUDY    61  55  82 CALM      30.12S
GRANBURY       PTCLDY    58  53  83 CALM      30.12S
$$

TXZ083>090-098>101-113>116-127>130-139>142-154-155-010600-
WESTERN NORTH TEXAS

CITY           SKY/WX    TMP DP  RH WIND       PRES   REMARKS
WICHITA FALLS  MOCLDY    63  52  67 SE5       30.11R
WF-KICKAPOO    MOCLDY    64  53  68 SE3       30.12S
VERNON         CLOUDY    64  50  60 SE5       30.11S
ABILENE        CLOUDY    62  55  77 SE6       30.13S
ABILENE-DYESS  CLOUDY    63  56  76 SE3       30.11S
CISCO          CLOUDY    63  54  72 SE6       30.13S
BRECKENRIDGE   PTCLDY    62  51  66 SE3       30.11S
GRAHAM         PTCLDY    57  54  88 CALM      30.10F
MINERAL WELLS  PTCLDY    57  52  83 CALM      30.10S
STEPHENVILLE   PTCLDY    57  50  78 CALM      30.15S
COMANCHE       PTCLDY    64  50  58 CALM      30.13R
BROWNWOOD      MOCLDY    59  57  94 CALM      30.12F
COLEMAN        MOCLDY    62  55  79 CALM      30.13S
$$

TXZ143>147-156>162-174-175-010600-
CENTRAL TEXAS

CITY           SKY/WX    TMP DP  RH WIND       PRES   REMARKS
WACO           PTCLDY    59  56  89 CALM      30.10R
WACO-MCGREGOR  PTCLDY    62  51  67 CALM      30.10S
HILLSBORO      PTCLDY    60  52  74 N3        30.11R
CORSICANA      PTCLDY    62  53  72 W3        30.11R
MEXIA          PTCLDY    64  52  65 CALM      30.09S
HEARNE         CLOUDY    60  58  91 CALM      30.10S
CAMERON        MOCLDY    63  56  80 CALM      30.10S
TEMPLE         PTCLDY    57  51  80 E3        30.12R
KILLEEN        MOCLDY    65  51  60 SE3       30.10S
KILLEEN-SKYLRK PTCLDY    61  55  81 CALM      30.11S
FORT HOOD      PTCLDY    66  50  56 E3        30.09R
GATESVILLE     PTCLDY    61  54  77 CALM      30.13S
HAMILTON       PTCLDY    64  51  63 S3        30.13S
LAMPASAS       PTCLDY    58  55  88 CALM      30.11S
$$

TXZ095>097-106>112-122>126-135>138-148>153-164>167-010600-
EAST TEXAS

CITY           SKY/WX    TMP DP  RH WIND       PRES   REMARKS
PARIS          CLEAR     61  50  67 N5        30.09S
SULPHUR SPRNGS CLEAR     62  50  65 CALM      30.12S
MOUNT PLEASANT CLEAR     58  55  89 CALM      30.10S
GILMER         CLEAR     57  52  82 S6        30.09S
MINEOLA        PTCLDY    57  54  88 CALM      30.09S
TYLER          CLEAR     62  54  74 CALM      30.09S
LONGVIEW       CLEAR     58  56  93 CALM      30.08S
MARSHALL       CLEAR     55  52  90 CALM      30.10F
ATHENS         PTCLDY    55  54  94 CALM      30.09S
PALESTINE      CLEAR     59  57  92 CALM      30.11S
JACKSONVILLE   CLEAR     67  53  60 CALM      30.11S
HENDERSON      CLEAR     58  57  97 CALM      30.10S
CENTER         CLEAR     59  58  96 N5        30.10S
NACOGDOCHES    CLEAR     57  54  88 CALM      30.08S
LUFKIN         CLEAR     59  55  87 CALM      30.09R
$$

SUPPLEMENTAL OBSERVATIONS (CENTRAL)

CITY           SKY/WX    TMP DP  RH WIND       PRES   REMARKS
DENISON DAM      N/A     66  55  68 CALM        N/A
CADDO GRASSLND   N/A     59  55  88 CALM        N/A
PAT MAYSE LAKE   N/A     59  57  94 N3          N/A
GREENVILLE       N/A     61  55  82 CALM        N/A
CEDAR HILL       N/A     61  50  67 CALM        N/A
ATHENS           N/A     61  55  82 CALM        N/A
LAKE LIMESTONE   N/A     59  55  88 CALM        N/A
MCGREGOR         N/A     57  50  77 CALM        N/A
TEMPLE           N/A     64  48  55 N1          N/A
$$

SUPPLEMENTAL OBSERVATIONS (WEST)

CITY           SKY/WX    TMP DP  RH WIND       PRES   REMARKS
MILLERS CREEK    N/A     64  52  63 SE7         N/A
POSSUM KINGDOM   N/A     63  52  67 SE5         N/A
LBJ GRASSLAND    N/A     63  46  55 E2          N/A
GRANBURY         N/A     57  52  82 CALM        N/A
COMANCHE         N/A     63  48  59 SE1         N/A
HAMBY            N/A     63  54  72 SE6         N/A
IVIE RESERVOIR   N/A     63  55  77 SE5         N/A
COLORADO BEND    N/A     63  48  59 CALM        N/A
$$

SUPPLEMENTAL OBSERVATIONS (EAST)

CITY           SKY/WX    TMP DP  RH WIND       PRES   REMARKS
CLARKSVILLE      N/A     59  50  72 SW1         N/A
TEXARKANA        N/A     55  54  94 CALM        N/A
LINDEN           N/A     57  54  88 CALM        N/A
CADDO LAKE       N/A     54  52  94 CALM        N/A
GILMER           N/A     57  52  82 SW2         N/A
HENDERSON        N/A     57  55  94 CALM        N/A
LUFKIN           N/A     59  57  94 MISG        N/A
N SABINE NF      N/A     57  54  88 MISG        N/A
S SABINE NF      N/A     55  52  88 CALM        N/A
$$

SUPPLEMENTAL OBSERVATIONS ARE A COLLECTION OF AUTOMATED INSTRUMENTS
THAT ARE MAINTAINED BY A VARIETY OF FEDERAL AND STATE AGENCIES.
CERTAIN ELEMENTS...SUCH AS HUMIDITY VALUES AND SUSTAINED WIND
SPEEDS...MAY BE APPROXIMATED.





USA.gov is the U.S. government's official web portal to all federal, state and local government web resources and services.